sat.trackr.live / text

‹ back to catalog

DMSP 5D-3 F18 (USA 210)

NORAD 35951 · 2009-057A

PAYLOAD ACTIVE UNKNOWN

§ Identity

Operator
Country
US
Launch date
2009-10-18
Launch site
AFWTR
Launch vehicle
Mass (kg)
RCS (m²)
3.98

Purposes: earth_obs

External: N2YO · Heavens-Above · Gunter

§ Orbital elements

Epoch: 2026-05-25T05:29:45.703680Z

Period
101.78 min
Inclination
98.9030°
Eccentricity
0.0010345
Mean motion
14.14882545 rev/d
Perigee alt
835.2 km
Apogee alt
850.2 km
Semi-major
7,220.8 km
B*
1.4857e-4
RAAN
126.0498°
Arg perigee
321.7453°
Mean anomaly
38.2985°
Rev number
85,634

§ Raw data

DMSP 5D-3 F18 (USA 210)1 35951U 09057A   26145.22900120  .00000242  00000+0  14857-3 0  99932 35951  98.9030 126.0498 0010345 321.7453  38.2985 14.14882545856345

JSON: /api/v1/satellites/35951 · /tle

For live sub-satellite position, see the globe view (requires WebGL).

§ Visibility from observer

Set your observer location to see the next 7 days of passes ≥ 10°. The values pass through the URL so the page stays shareable.

No JS? Fill the form by hand. The geolocation button needs JavaScript.

§ Radio — SatNOGS DB

ModeDescriptionDownlinkUplink
FM Mode U - RTD1 400.328 MHz
FM Mode U - RTD2 400.822 MHz
FM RTD 2.253 GHz
FM S-band telemetry 2.208 GHz
BPSK S-band telemetry 2.268 GHz
FM S-band telemetry 2.254 GHz

6 transmitters · refreshed weekly from db.satnogs.org